"Pseudo-MPEC" for P22oLCM

Created 2026 Aug 26 0:35:10 UT using Find_Orb

Click here for an explanation of pseudo-MPECs

 
 Astrometry: 
     P22oLCM 0C2026 06 23.53197121 17 13.399-13 53 51.81   ~8OFo 22.51GVNEOCPF52
     P22oLCM 0C2026 06 23.54418421 17 13.348-13 53 51.42   ~8OFo 22.60GVNEOCPF52
     P22oLCM 0C2026 06 23.55642821 17 13.298-13 53 51.17   ~8OFo 22.21GVNEOCPF52
     P22oLCM 0C2026 06 23.56864221 17 13.233-13 53 50.43   ~8OFo 22.39GVNEOCPF52
     P22oLCM 0C2026 07 20.45418521 10 50.518-13 59 39.61   ~8OFo 21.36wXNEOCPF51
     P22oLCM 0C2026 07 20.46683221 10 50.210-13 59 40.24   ~8OFo 21.44wXNEOCPF51
     P22oLCM 0C2026 07 20.47929221 10 49.900-13 59 40.96   ~8OFo 21.36wXNEOCPF51
     P22oLCM 0C2026 07 20.49178421 10 49.590-13 59 41.83   ~8OFo 21.48wXNEOCPF51
     P22oLCM*0C2026 08 03.43935621 04 38.622-14 16 55.91   ~8OFo 21.98wXNEOCPF52
     P22oLCM 0C2026 08 03.45277521 04 38.231-14 16 57.19   ~8OFo 21.27wXNEOCPF52
     P22oLCM 0C2026 08 03.46618921 04 37.810-14 16 58.40   ~8OFo 21.78wXNEOCPF52
     P22oLCM 0C2026 08 03.47963121 04 37.417-14 16 59.59   ~8OFo 21.13wXNEOCPF52
     P22oLCM 0C2026 08 03.52866221 04 35.951-14 17 03.51   ~8OFo 21.13GVNEOCPF51
     P22oLCM 0C2026 08 03.52930821 04 35.922-14 17 03.74   ~8OFo 21.32GVNEOCPF51
     P22oLCM KC2026 08 04.22993721 04 15.87 -14 18 04.1    ~8OFo 21.2 GVNEOCPH21
     P22oLCM KC2026 08 04.24541221 04 15.40 -14 18 05.3    ~8OFo 21.3 GVNEOCPH21
     P22oLCM 0C2026 08 04.42565421 04 10.234-14 18 22.10   ~8OFo 21.39wXNEOCPF51
     P22oLCM 0C2026 08 04.43780821 04 09.863-14 18 22.95   ~8OFo 21.43wXNEOCPF51
     P22oLCM 0C2026 08 04.44997121 04 09.498-14 18 24.16   ~8OFo 21.51wXNEOCPF51
     P22oLCM 0C2026 08 04.46213521 04 09.130-14 18 25.01   ~8OFo 21.09wXNEOCPF51
     P22oLCM 3C2026 08 06.48085421 03 10.535-14 21 24.56   ~8OFo 20.86GVNEOCPT14
     P22oLCM 3C2026 08 06.48206121 03 10.499-14 21 24.69   ~8OFo 20.84GVNEOCPT14
     P22oLCM 3C2026 08 06.48326321 03 10.462-14 21 24.78   ~8OFo 20.90GVNEOCPT14
     P22oLCM 0C2026 08 08.44909321 02 13.131-14 24 23.32   ~8OFo 21.52wXNEOCPF51
     P22oLCM 0C2026 08 08.46063921 02 12.786-14 24 24.22   ~8OFo 21.35wXNEOCPF51
     P22oLCM 0C2026 08 08.47177721 02 12.449-14 24 25.33   ~8OFo 21.84wXNEOCPF51
     P22oLCM 0C2026 08 08.48288221 02 12.112-14 24 26.43   ~8OFo 21.49wXNEOCPF51
     P22oLCM 0C2026 08 08.56119421 02 09.741-14 24 33.38   ~8OFo 21.48GVNEOCPF51
     P22oLCM 0C2026 08 08.56201521 02 09.714-14 24 33.34   ~8OFo 21.32GVNEOCPF51
     P22oLCM 1C2026 08 13.63749 20 59 41.95 -14 32 21.0    ~8OFo       VNEOCPQ62
     P22oLCM 1C2026 08 13.64437 20 59 41.76 -14 32 21.9    ~8OFo 21.4 GVNEOCPQ62

Station data:
(F51) Pan-STARRS 1, Haleakala  (N20.707234 W156.255910)  US/Hawaii.
   Observers J. Herman, T. Lowe, P. Minguez, A. Schultz, I. Smith. Measurers
   K. Chambers, T. de Boer, J. Fairlamb, H. Gao, M. Huber, C.-C. Lin, E.
   Magnier, Y. Ramanjooloo, R. Wainscoat, R. Weryk. 1.8-m Ritchey-Chrétien +
   CCD.
(F52) Pan-STARRS 2, Haleakala  (N20.707382 W156.255910)  US/Hawaii.
   Observers J. Herman, T. Lowe, P. Minguez, A. Schultz, I. Smith. Measurers
   K. Chambers, T. de Boer, J. Fairlamb, H. Gao, M. Huber, C.-C. Lin, E.
   Magnier, Y. Ramanjooloo, R. Wainscoat, R. Weryk. 1.8-m Ritchey-Chrétien +
   CCD.
(H21) Astronomical Research Observatory, Westfield  (N39.483054 W87.968270)
   US/Illinois.  Observer R. Holmes. Measurers S. Foglia, L. Buzzi, T.
   Linder, R. Holmes. 0.40-m f/5.32 astrograph + CCD.
(Q62) iTelescope Observatory, Siding Spring  (S31.273286 E149.064420)
   Australia/NSW.  Observer H. Sato. 0.30-m f/9 reflector + CCD.
(T14) Mauna Kea-UH/Tholen NEO Follow-Up (CFHT)  (N19.825252 W155.468876)
   US/Hawaii.  Observer R. Weryk. 3.6-m Canada-France-Hawaii Telescope.

Orbital elements:  P22oLCM
   Perihelion 2027 Mar 10.110993 +/- 0.25 TT =  2:39:49.7 (JD 2461474.610993)
Epoch 2026 Aug 13.0 TT = JDT 2461265.5   Ju: 0.0051   Sa: 0.0957   Ur: 0.8905
M 357.086187766 +/- 0.009           (J2000 ecliptic)             AutoNEOCP
n   0.013934285 +/- 6.44e-5         Peri.   80.812582 +/- 0.059
a  17.10328701 +/- 0.0527           Node   275.735024 +/- 0.007
e   0.80366119 +/- 0.000672         Incl.    2.799954 +/- 0.00058
P  70.73256                H 16.10  G  0.15   U  6.3
q 3.358038900 +/- 0.00116    Q 30.84853513 +/- 0.107
From 31 observations 2026 June 23-Aug. 13; mean residual 0".28
Residuals in arcseconds: 
260623 F52  .04-  .06+    260803 F52  .06+  .19-    260806 T14  .00   .01-    
260623 F52  .02+  .00     260803 F51  .07+  .06+    260808 F51  .12-  .04-    
260623 F52  .09+  .20-    260803 F51  .07-  .11-    260808 F51  .02-  .11+    
260623 F52  .05-  .08+    260804 H21  .17-  1.4+    260808 F51  .02+  .00     
260720 F51  .09-  .01-    260804 H21  .28-  1.5+    260808 F51  .03+  .10-    
260720 F51  .00   .10+    260804 F51  .05+  .18-    260808 F51  .05+  .07-    
260720 F51  .01-  .12+    260804 F51  .01-  .04+    260808 F51  .01+  .04+    
260720 F51  .01+  .02-    260804 F51  .01+  .11-    260813 Q62  .21-  .40+    
260803 F52  .02+  .02+    260804 F51  .01-  .11+    260813 Q62  .02+  .13+    
260803 F52  .19+  .10-    260806 T14  .00   .01-    
260803 F52  .09-  .15-    260806 T14  .01+  .03-    

Ephemerides (geocentric):
Date (UTC) HH   RA             Dec           delta  r     elong  mag " sig PA
---- --------  ------------   ------------  ------ ------ -----  --- --------
2026 08 26 01  20 54 06.089   -14 50 56.65  2.7712 3.7331 159.2 21.6 .723  89
2026 08 26 02  20 54 05.069   -14 51 00.13  2.7713 3.7330 159.1 21.6 .726  89
2026 08 26 03  20 54 04.049   -14 51 03.60  2.7713 3.7328 159.1 21.6 .728  89
2026 08 26 04  20 54 03.031   -14 51 07.06  2.7714 3.7327 159.0 21.6 .731  89
2026 08 26 05  20 54 02.013   -14 51 10.53  2.7715 3.7325 159.0 21.6 .734  89
2026 08 26 06  20 54 00.996   -14 51 13.99  2.7715 3.7324 158.9 21.6 .736  89
2026 08 26 07  20 53 59.980   -14 51 17.45  2.7716 3.7322 158.9 21.6 .739  89
2026 08 26 08  20 53 58.965   -14 51 20.91  2.7717 3.7321 158.9 21.6 .742  89
2026 08 26 09  20 53 57.951   -14 51 24.37  2.7717 3.7319 158.8 21.6 .744  89
2026 08 26 10  20 53 56.938   -14 51 27.82  2.7718 3.7318 158.8 21.6 .747  89
2026 08 26 11  20 53 55.926   -14 51 31.27  2.7719 3.7316 158.7 21.6 .750  89
2026 08 26 12  20 53 54.915   -14 51 34.72  2.7720 3.7315 158.7 21.6 .752  89
2026 08 26 13  20 53 53.904   -14 51 38.16  2.7720 3.7313 158.6 21.6 .755  89
2026 08 26 14  20 53 52.895   -14 51 41.60  2.7721 3.7312 158.6 21.6 .758  89
2026 08 26 15  20 53 51.887   -14 51 45.04  2.7722 3.7311 158.6 21.6 .760  89
2026 08 26 16  20 53 50.879   -14 51 48.48  2.7723 3.7309 158.5 21.6 .763  89
2026 08 26 17  20 53 49.873   -14 51 51.91  2.7723 3.7308 158.5 21.6 .766  89
2026 08 26 18  20 53 48.868   -14 51 55.34  2.7724 3.7306 158.4 21.6 .768  89
2026 08 26 19  20 53 47.863   -14 51 58.77  2.7725 3.7305 158.4 21.6 .771  89
2026 08 26 20  20 53 46.860   -14 52 02.20  2.7725 3.7303 158.3 21.6 .774  89
2026 08 26 21  20 53 45.857   -14 52 05.62  2.7726 3.7302 158.3 21.6 .777  89
2026 08 26 22  20 53 44.855   -14 52 09.04  2.7727 3.7300 158.2 21.6 .779  89
2026 08 26 23  20 53 43.855   -14 52 12.46  2.7728 3.7299 158.2 21.6 .782  89
2026 08 27 00  20 53 42.855   -14 52 15.87  2.7728 3.7297 158.2 21.6 .785  89
2026 08 27 01  20 53 41.856   -14 52 19.29  2.7729 3.7296 158.1 21.6 .788  89
2026 08 27 02  20 53 40.859   -14 52 22.70  2.7730 3.7294 158.1 21.6 .790  89
2026 08 27 03  20 53 39.862   -14 52 26.10  2.7731 3.7293 158.0 21.6 .793  89
2026 08 27 04  20 53 38.866   -14 52 29.51  2.7732 3.7291 158.0 21.6 .796  89
2026 08 27 05  20 53 37.872   -14 52 32.91  2.7732 3.7290 157.9 21.6 .799  89
2026 08 27 06  20 53 36.878   -14 52 36.30  2.7733 3.7288 157.9 21.6 .801  89
2026 08 27 07  20 53 35.885   -14 52 39.70  2.7734 3.7287 157.8 21.6 .804  89
2026 08 27 08  20 53 34.893   -14 52 43.09  2.7735 3.7285 157.8 21.6 .807  89
2026 08 27 09  20 53 33.902   -14 52 46.48  2.7736 3.7284 157.8 21.6 .810  89
2026 08 27 10  20 53 32.912   -14 52 49.87  2.7736 3.7282 157.7 21.6 .812  89
2026 08 27 11  20 53 31.924   -14 52 53.25  2.7737 3.7281 157.7 21.6 .815  89
2026 08 27 12  20 53 30.936   -14 52 56.64  2.7738 3.7280 157.6 21.6 .818  89
2026 08 27 13  20 53 29.949   -14 53 00.01  2.7739 3.7278 157.6 21.6 .821  89
2026 08 27 14  20 53 28.963   -14 53 03.39  2.7740 3.7277 157.5 21.6 .824  89
2026 08 27 15  20 53 27.978   -14 53 06.76  2.7740 3.7275 157.5 21.6 .826  89
2026 08 27 16  20 53 26.994   -14 53 10.13  2.7741 3.7274 157.5 21.6 .829  89
2026 08 27 17  20 53 26.011   -14 53 13.50  2.7742 3.7272 157.4 21.6 .832  89
2026 08 27 18  20 53 25.029   -14 53 16.87  2.7743 3.7271 157.4 21.6 .835  89
2026 08 27 19  20 53 24.049   -14 53 20.23  2.7744 3.7269 157.3 21.6 .838  89
2026 08 27 20  20 53 23.069   -14 53 23.59  2.7745 3.7268 157.3 21.6 .841  89
2026 08 27 21  20 53 22.090   -14 53 26.94  2.7746 3.7266 157.2 21.6 .843  88
2026 08 27 22  20 53 21.112   -14 53 30.29  2.7746 3.7265 157.2 21.6 .846  88
2026 08 27 23  20 53 20.135   -14 53 33.64  2.7747 3.7263 157.1 21.6 .849  88
2026 08 28 00  20 53 19.160   -14 53 36.99  2.7748 3.7262 157.1 21.6 .852  88